Flag Weather past 2 weeks in Guadalajara, Jalisco, Mexico

Now
41 °F

Clear.


Feels Like: 41 °F
Forecast: 42 / 72 °F
Wind: No wind

Location: Don Miguel / Guadalaj

Current Time: Nov 26, 2014 at 7:24:54 AM

Latest Report: Nov 26, 2014 at 4:51 AM


Visibility: 10 mi

Pressure: 30.30 "Hg

Humidity: 39%

Dew point: 18 °F

Location of GuadalajaraLocation

Historic Weather in Guadalajara — Graph

°F

Guadalajara temperature yesterday

Maximum temperature yesterday: 75 °F (at 1:47 PM)
Minimum temperature yesterday: 43 °F (at 5:52 AM)
Average temperature yesterday: 58 °F

Past Weeks' High & Low Weather Summary

 TemperatureHumidityPressure
High77 °F (Nov 14, 2:53 PM)94% (Nov 11, 4:07 AM)30.31 "Hg (Nov 11, 4:07 AM)
Low41 °F (Nov 26, 4:51 AM)22% (Nov 25, 7:48 PM)29.82 "Hg (Nov 12, 2:48 PM)
Average61 °F70%30.11 "Hg
* Reported Nov 11 4:07 AM — Nov 26 4:51 AM, Guadalajara, Weather by CustomWeather, © 2014

Note: Actual official high and low records may vary slightly from our data, if they occured in-between our weather recording intervals... More about our weather records

Advertising

Guadalajara weather history for previous 24 hours

 ConditionsComfort  
Time TempWeatherWind HumidityBarometerVisibility
4:51 AM
Nov 26
41 °FClear.No wind39%30.30 "Hg10 mi
12:40 AM46 °FPassing clouds.No wind40%30.30 "Hg10 mi
10:46 PM
Nov 25
52 °FPassing clouds.No wind30%30.31 "Hg10 mi
8:50 PM61 °FPartly cloudy.No wind22%30.12 "Hg8 mi
7:48 PM63 °FPartly cloudy.7 mph22%30.25 "Hg8 mi
6:50 PM66 °FPartly cloudy.6 mph28%30.22 "Hg8 mi
5:50 PM72 °FPartly sunny.9 mph25%30.03 "Hg8 mi
4:48 PM75 °FPartly sunny.10 mph25%30.17 "Hg8 mi
2:51 PM75 °FPartly sunny.7 mph24%29.93 "Hg8 mi
1:47 PM75 °FPartly sunny.6 mph24%30.16 "Hg8 mi
12:46 PM68 °FPartly sunny.5 mph43%30.20 "Hg8 mi
11:49 AM66 °FPartly sunny.No wind60%30.02 "Hg7 mi
10:51 AM61 °FPartly sunny.5 mph63%30.25 "Hg7 mi
9:51 AM57 °FHigh level clouds.No wind77%30.23 "Hg7 mi
8:49 AM54 °FPartly sunny.No wind77%30.03 "Hg7 mi
7:49 AM46 °FPartly sunny.No wind93%30.20 "Hg7 mi
Weather by CustomWeather, © 2014

See weather overviewHow to use our weather pages